Location: White Mills Observatory
(37.5374°N, 86.0303°W)
Time: 01:32:19
(UTC-04:00)

Amateur Radio Satellites - All Passes

Search period start: 26 September 2017 01:02
Search period end: 27 September 2017 01:02
Location: White Mills Observatory, 37.5374°N, 86.0303°W

Satellite Date Start Highest point End Downlink Frequencies (MHz)
Time Altitude Azimuth
TIGRISAT 26 Sep 01:03:43 01:06:16 15° 295° (WNW) 01:08:50 435.000
SPROUT 26 Sep 01:14:28 01:18:38 67° 77° (ENE) 01:22:52 437.525
QB50P2 26 Sep 01:15:35 01:19:44 45° 100° (E) 01:23:49 145.880/145.840
ESTCUBE 1 26 Sep 01:17:35 01:21:24 27° 264° (W) 01:25:15 437.505/2401.250
50 SAT 26 Sep 01:19:28 01:20:54 12° 68° (ENE) 01:22:20 437.505
VELOX 1 26 Sep 01:34:29 01:38:53 83° 78° (ENE) 01:43:17 145.980
AIST 2D 26 Sep 01:35:21 01:38:26 29° 287° (WNW) 01:41:30 435.315
PCSat 26 Sep 01:36:17 01:41:01 31° 251° (WSW) 01:45:43 145.827
YUBILEINY 26 Sep 01:41:58 01:49:45 38° 274° (W) 01:57:33 435.215
NANOSAT C BR1 26 Sep 01:48:16 01:52:34 90° 182° (S) 01:56:50 145.865
O/OREOS (USA 219) 26 Sep 01:51:07 01:53:43 15° 99° (E) 01:56:20 437.305
M-CUBED/EXP-1 PRIME 26 Sep 02:12:56 02:15:49 28° 103° (ESE) 02:18:42 437.505
DUCHIFAT 1 26 Sep 02:15:24 02:19:31 49° 287° (WNW) 02:23:37 145.980
ISS 26 Sep 02:20:47 02:23:01 17° 25° (NNE) 02:25:14 437.550
Tancredo 1 26 Sep 02:21:54 02:24:34 81° 225° (SW) 02:27:14 437.200
UKube-1 26 Sep 02:22:57 02:27:02 45° 73° (ENE) 02:31:08 .
POLYITAN 1 26 Sep 02:33:40 02:37:10 25° 291° (WNW) 02:40:38 437.675
DX 1 26 Sep 02:35:04 02:39:25 80° 259° (W) 02:43:45 434.975-435.025
EO-79 26 Sep 02:37:19 02:40:39 22° 291° (WNW) 02:43:59 145.935-145.965
BUGSAT 1 26 Sep 02:40:12 02:44:26 79° 102° (ESE) 02:48:41 437.445
Oscar 19 26 Sep 02:47:01 02:51:50 39° 98° (E) 02:56:36 437.125/150
50 SAT 26 Sep 02:50:11 02:53:05 28° 262° (W) 02:55:59 437.505
QB50P2 26 Sep 02:52:46 02:55:05 14° 294° (WNW) 02:57:24 145.880/145.840
Gurwin Techsat 1B 26 Sep 02:52:49 02:57:27 30° 96° (E) 03:02:04 435.225
nSIGHT-1 26 Sep 02:54:45 02:57:40 30° 32° (NNE) 03:00:35 .
O/OREOS (USA 219) 26 Sep 03:28:24 03:32:41 43° 295° (WNW) 03:37:02 437.305
ITUPSAT 1 26 Sep 03:39:08 03:43:27 35° 70° (ENE) 03:47:49 437.325
M-CUBED/EXP-1 PRIME 26 Sep 03:48:36 03:50:00 12° 298° (WNW) 03:51:23 437.505
ISS 26 Sep 03:56:31 03:59:48 71° 222° (SW) 04:03:04 437.550
ITAMSAT 1 26 Sep 04:00:38 04:01:48 11° 90° (E) 04:02:59 435.822/435.867
UKube-1 26 Sep 04:01:03 04:03:15 14° 267° (W) 04:05:28 .
BEESAT 26 Sep 04:13:28 04:18:13 85° 78° (ENE) 04:23:01 436.000
MOZHAYETS 4 26 Sep 04:21:30 04:26:07 82° 258° (WSW) 04:30:47
Oscar 19 26 Sep 04:26:53 04:30:53 23° 294° (WNW) 04:34:51 437.125/150
nSIGHT-1 26 Sep 04:31:11 04:33:55 25° 228° (SW) 04:36:39 .
Gurwin Techsat 1B 26 Sep 04:32:41 04:37:19 31° 292° (WNW) 04:41:56 435.225
AO-7 26 Sep 04:38:40 04:46:22 41° 100° (E) 04:54:00 .
BEESAT 3 26 Sep 04:52:15 04:56:08 50° 57° (ENE) 04:59:56 437.485
RS-15 26 Sep 04:54:24 05:05:18 41° 106° (ESE) 05:16:18 29.354- 29.394
CUBESAT XI-V 26 Sep 04:55:08 04:59:37 46° 73° (ENE) 05:04:06 437.345
BEESAT 2 26 Sep 05:06:19 05:09:36 23° 51° (NE) 05:12:49 435.950
AO-85 26 Sep 05:15:33 05:19:38 33° 54° (NE) 05:23:58 145.980
ITUPSAT 1 26 Sep 05:17:42 05:21:20 21° 265° (W) 05:24:59 437.325
ITAMSAT 1 26 Sep 05:36:34 05:41:47 79° 285° (WNW) 05:47:00 435.822/435.867
KKS-1 26 Sep 05:58:36 06:03:00 79° 75° (ENE) 06:07:25 437.445
STARS 26 Sep 06:15:18 06:19:27 46° 73° (ENE) 06:23:38 437.465
DOVE 4 26 Sep 06:19:08 06:22:49 26° 97° (E) 06:26:38 437.250
AO-7 26 Sep 06:31:25 06:39:03 43° 297° (WNW) 06:46:41 .
BEESAT 3 26 Sep 06:31:51 06:33:11 11° 252° (WSW) 06:34:30 437.485
CUBESAT XI-V 26 Sep 06:34:18 06:37:11 16° 268° (W) 06:40:03 437.345
BEESAT 2 26 Sep 06:43:49 06:47:18 29° 247° (WSW) 06:50:45 435.950
XW-2D 26 Sep 06:53:52 06:56:05 15° 93° (E) 06:58:17 145.860 - 145.880
AO-85 26 Sep 06:56:07 06:59:55 26° 247° (WSW) 07:03:56 145.980
XW-2F 26 Sep 07:03:38 07:06:16 18° 94° (E) 07:08:52 145.980 - 146.000
RS-15 26 Sep 07:05:12 07:17:17 61° 307° (NW) 07:29:29 29.354- 29.394
XW-2B 26 Sep 07:05:46 07:08:37 20° 95° (E) 07:11:27 145.730 - 145.750
NUDT-PHONESAT 26 Sep 07:17:23 07:20:09 20° 95° (E) 07:22:53 437.300
XW-2C 26 Sep 07:26:43 07:30:17 38° 98° (E) 07:33:48 145.795 - 145.815
STRAND 1 26 Sep 07:32:21 07:36:33 27° 67° (ENE) 07:40:45 437.568
LilacSat-2 26 Sep 07:42:16 07:46:05 69° 100° (E) 07:49:51 437.200
CUTE-I 26 Sep 07:44:36 07:49:47 50° 100° (E) 07:54:56 437.470
KAITUO 1B 26 Sep 07:49:44 07:53:26 56° 101° (E) 07:57:03 145.475/437.950
STARS 26 Sep 07:53:48 07:56:00 14° 267° (W) 07:58:12 437.465
DOVE 4 26 Sep 07:56:55 08:00:24 24° 290° (WNW) 08:04:00 437.250
CUBEBUG 2 26 Sep 08:26:52 08:30:37 23° 94° (E) 08:34:22 437.445
XW-2D 26 Sep 08:26:56 08:30:19 31° 288° (WNW) 08:33:40 145.860 - 145.880
UWE-3 26 Sep 08:28:59 08:31:14 13° 91° (E) 08:33:29 435.000/436.395/437.385
SEEDS 26 Sep 08:30:20 08:33:45 24° 95° (E) 08:37:08 437.485
XW-2F 26 Sep 08:37:11 08:40:22 26° 289° (WNW) 08:43:28 145.980 - 146.000
XW-2B 26 Sep 08:39:40 08:42:43 23° 290° (WNW) 08:45:44 145.730 - 145.750
HO-68 26 Sep 08:40:44 08:47:48 56° 101° (ESE) 08:54:49 435.675
AAUSAT CUBESAT 2 26 Sep 08:45:05 08:47:28 15° 93° (E) 08:49:50 437.432
NUDT-PHONESAT 26 Sep 08:50:59 08:53:56 23° 289° (WNW) 08:56:52 437.300
XW-2C 26 Sep 09:02:18 09:04:04 13° 293° (WNW) 09:05:50 145.795 - 145.815
CUTE 1.7 + AOD 2 26 Sep 09:03:25 09:07:39 77° 282° (WNW) 09:11:50 437.475
AO-73 26 Sep 09:05:01 09:07:43 15° 92° (E) 09:10:22 145.935
ZACube-1 26 Sep 09:09:08 09:12:28 20° 93° (E) 09:15:45 437.345
FO-29 26 Sep 09:09:37 09:14:12 27° 68° (ENE) 09:18:33 435.910
STRAND 1 26 Sep 09:11:00 09:15:33 33° 263° (W) 09:20:08 437.568
RS-15 26 Sep 09:24:08 09:33:08 22° 336° (NNW) 09:42:05 29.354- 29.394
CUTE-I 26 Sep 09:25:40 09:29:25 20° 295° (WNW) 09:33:10 437.470
XW-2A 26 Sep 09:52:34 09:55:45 37° 286° (WNW) 09:58:54 145.665 - 145.685
UNISAT 6 26 Sep 10:00:07 10:03:30 22° 68° (ENE) 10:06:57 437.425
CUBEBUG 2 26 Sep 10:02:59 10:07:13 33° 289° (WNW) 10:11:27 437.445
UWE-3 26 Sep 10:03:24 10:07:59 55° 286° (WNW) 10:12:31 435.000/436.395/437.385
PRISM 26 Sep 10:05:28 10:07:06 12° 65° (ENE) 10:08:45 437.425
SEEDS 26 Sep 10:05:59 10:09:19 24° 290° (WNW) 10:12:39 437.485
AAUSAT CUBESAT 2 26 Sep 10:19:15 10:23:02 37° 287° (WNW) 10:26:48 437.432
TIGRISAT 26 Sep 10:22:16 10:26:13 35° 71° (ENE) 10:30:16 435.000
HO-68 26 Sep 10:29:16 10:35:03 27° 298° (WNW) 10:40:52 435.675
Oscar 11 26 Sep 10:35:14 10:39:34 73° 284° (WNW) 10:43:52 .
AO-73 26 Sep 10:39:46 10:44:08 45° 287° (WNW) 10:48:26 145.935
ZACube-1 26 Sep 10:44:36 10:48:48 36° 288° (WNW) 10:52:56 437.345
FO-29 26 Sep 10:54:06 10:59:12 33° 262° (W) 11:03:59 435.910
EO-88 26 Sep 11:06:23 11:09:29 26° 96° (E) 11:12:33 145.990 - 145.960
DELFI C3 26 Sep 11:19:50 11:23:46 80° 103° (ESE) 11:27:40 145.870
UNISAT 6 26 Sep 11:36:13 11:40:00 29° 264° (W) 11:43:54 437.425
PRISM 26 Sep 11:37:57 11:41:55 49° 260° (W) 11:45:54 437.425
RS-15 26 Sep 11:44:34 11:52:18 18° 13° (NNE) 11:59:51 29.354- 29.394
Max Valier Satellite 26 Sep 11:45:41 11:49:23 61° 284° (WNW) 11:53:02 145.860
POLYITAN 1 26 Sep 11:49:27 11:51:57 15° 66° (ENE) 11:54:26 437.675
EO-79 26 Sep 11:52:38 11:55:18 17° 67° (ENE) 11:57:59 145.935-145.965
LO-87 26 Sep 11:54:17 11:55:38 12° 92° (E) 11:56:59 145.935 - 145.965
TIGRISAT 26 Sep 12:00:01 12:03:00 18° 267° (W) 12:06:02 435.000
O/OREOS (USA 219) 26 Sep 12:01:25 12:05:07 23° 60° (ENE) 12:08:47 437.305
QB50P2 26 Sep 12:06:25 12:09:54 26° 70° (ENE) 12:13:27 145.880/145.840
AIST 2D 26 Sep 12:06:44 12:10:14 63° 76° (ENE) 12:13:46 435.315
NO-84 26 Sep 12:31:41 12:35:36 50° 131° (SE) 12:39:16 435.350 FM
NANOSAT C BR1 26 Sep 12:38:02 12:42:03 48° 74° (ENE) 12:46:08 145.865
EO-88 26 Sep 12:40:30 12:42:55 17° 291° (WNW) 12:45:19 145.990 - 145.960
YUBILEINY 26 Sep 12:43:08 12:51:28 53° 90° (E) 12:59:48 435.215
M-CUBED/EXP-1 PRIME 26 Sep 12:56:08 12:59:56 33° 68° (ENE) 13:03:30 437.505
SPROUT 26 Sep 13:03:36 13:05:38 13° 92° (E) 13:07:39 437.525
DUCHIFAT 1 26 Sep 13:04:32 13:08:43 89° 83° (E) 13:12:57 145.980
ESTCUBE 1 26 Sep 13:10:58 13:15:29 73° 103° (ESE) 13:19:55 437.505/2401.250
POLYITAN 1 26 Sep 13:23:22 13:27:20 41° 261° (W) 13:31:22 437.675
LO-87 26 Sep 13:25:50 13:29:10 35° 287° (WNW) 13:32:30 145.935 - 145.965
EO-79 26 Sep 13:26:50 13:30:44 37° 262° (W) 13:34:40 145.935-145.965
VELOX 1 26 Sep 13:27:19 13:30:18 18° 94° (E) 13:33:16 145.980
BUGSAT 1 26 Sep 13:27:52 13:31:36 38° 72° (ENE) 13:35:23 437.445
O/OREOS (USA 219) 26 Sep 13:40:26 13:44:31 32° 256° (WSW) 13:48:35 437.305
QB50P2 26 Sep 13:42:17 13:45:37 23° 265° (W) 13:49:00 145.880/145.840
RS-15 26 Sep 13:58:04 14:09:22 43° 45° (NE) 14:20:02 29.354- 29.394
Oscar 19 26 Sep 14:01:43 14:06:41 47° 72° (ENE) 14:11:40 437.125/150
SO-50 26 Sep 14:02:35 14:06:58 56° 117° (ESE) 14:11:22 436.795
NO-84 26 Sep 14:10:12 14:13:10 21° 325° (NW) 14:15:59 435.350 FM
Gurwin Techsat 1B 26 Sep 14:11:52 14:16:47 40° 70° (ENE) 14:21:42 435.225
50 SAT 26 Sep 14:12:44 14:14:35 14° 94° (E) 14:16:26 437.505
NANOSAT C BR1 26 Sep 14:16:24 14:18:01 12° 268° (W) 14:19:39 145.865
DX 1 26 Sep 14:25:53 14:29:03 20° 95° (E) 14:32:12 434.975-435.025
M-CUBED/EXP-1 PRIME 26 Sep 14:31:23 14:34:19 18° 259° (W) 14:37:09 437.505
PCSat 26 Sep 14:32:13 14:37:19 44° 111° (ESE) 14:42:26 145.827
SPROUT 26 Sep 14:37:37 14:41:44 47° 287° (WNW) 14:45:51 437.525
YUBILEINY 26 Sep 14:41:07 14:48:33 31° 288° (WNW) 14:56:02 435.215
ESTCUBE 1 26 Sep 14:51:12 14:51:36 10° 298° (WNW) 14:52:02 437.505/2401.250
VELOX 1 26 Sep 15:02:48 15:06:49 36° 289° (WNW) 15:10:50 145.980
BUGSAT 1 26 Sep 15:05:00 15:07:07 14° 267° (W) 15:09:15 437.445
ITAMSAT 1 26 Sep 15:15:52 15:18:49 15° 63° (ENE) 15:21:45 435.822/435.867
AO-7 26 Sep 15:35:22 15:43:13 48° 64° (ENE) 15:51:04 .
Oscar 19 26 Sep 15:42:37 15:46:12 19° 267° (W) 15:49:48 437.125/150
50 SAT 26 Sep 15:44:20 15:47:03 24° 289° (WNW) 15:49:45 437.505
SO-50 26 Sep 15:44:49 15:47:45 17° 314° (NW) 15:50:42 436.795
ITUPSAT 1 26 Sep 15:44:52 15:45:07 10° 90° (E) 15:45:22 437.325
UKube-1 26 Sep 15:47:18 15:51:36 74° 284° (WNW) 15:55:53 .
Gurwin Techsat 1B 26 Sep 15:52:40 15:56:48 23° 265° (W) 16:00:59 435.225
DX 1 26 Sep 16:01:24 16:05:16 32° 289° (WNW) 16:09:06 434.975-435.025
RS-15 26 Sep 16:10:45 16:22:12 58° 249° (WSW) 16:33:04 29.354- 29.394
BEESAT 26 Sep 16:16:02 16:19:57 24° 96° (E) 16:23:50 436.000
PCSat 26 Sep 16:16:24 16:20:52 25° 308° (NW) 16:25:21 145.827
MOZHAYETS 4 26 Sep 16:18:53 16:22:49 27° 96° (E) 16:26:42
ITAMSAT 1 26 Sep 16:52:37 16:57:43 62° 258° (WSW) 17:02:51 435.822/435.867
CUBESAT XI-V 26 Sep 16:55:23 16:57:27 13° 91° (E) 16:59:30 437.345
ITUPSAT 1 26 Sep 17:18:35 17:23:24 74° 285° (WNW) 17:28:11 437.325
DOVE 4 26 Sep 17:23:23 17:26:39 21° 70° (ENE) 17:29:51 437.250
AO-7 26 Sep 17:28:35 17:36:03 36° 261° (W) 17:43:33 .
KKS-1 26 Sep 17:52:26 17:55:22 17° 94° (E) 17:58:18 437.445
BEESAT 26 Sep 17:53:28 17:57:41 31° 291° (WNW) 18:01:53 436.000
MOZHAYETS 4 26 Sep 17:55:59 17:59:51 27° 291° (WNW) 18:03:42
XW-2C 26 Sep 18:07:01 18:09:17 15° 68° (ENE) 18:11:34 145.795 - 145.815
LilacSat-2 26 Sep 18:22:20 18:25:31 25° 71° (ENE) 18:28:44 437.200
JUGNU 26 Sep 18:25:54 18:27:24 11° 170° (S) 18:28:54 437.505
KAITUO 1B 26 Sep 18:28:11 18:30:58 20° 70° (ENE) 18:33:46 145.475/437.950
CUBESAT XI-V 26 Sep 18:30:37 18:35:08 54° 286° (WNW) 18:39:36 437.345
Tancredo 1 26 Sep 18:38:40 18:41:14 44° 136° (SE) 18:43:49 437.200
BEESAT 3 26 Sep 18:41:34 18:43:32 13° 109° (ESE) 18:45:31 437.485
DOVE 4 26 Sep 19:00:23 19:04:12 28° 263° (W) 19:07:53 437.250
CUTE-I 26 Sep 19:04:24 19:09:39 67° 74° (ENE) 19:14:56 437.470
XW-2D 26 Sep 19:05:11 19:09:02 87° 84° (E) 19:12:54 145.860 - 145.880
HO-68 26 Sep 19:07:37 19:13:52 34° 64° (ENE) 19:20:07 435.675
NO-84 26 Sep 19:08:16 19:09:44 13° 29° (NNE) 19:11:09 435.350 FM
XW-2F 26 Sep 19:14:53 19:18:42 77° 258° (WSW) 19:22:33 145.980 - 146.000
XW-2B 26 Sep 19:17:43 19:21:31 67° 258° (WSW) 19:25:22 145.730 - 145.750
SEEDS 26 Sep 19:21:05 19:23:20 14° 66° (ENE) 19:25:35 437.485
CUBEBUG 2 26 Sep 19:24:17 19:26:34 14° 65° (ENE) 19:28:52 437.445
NUDT-PHONESAT 26 Sep 19:26:52 19:30:35 72° 260° (W) 19:34:21 437.300
KKS-1 26 Sep 19:27:54 19:32:02 38° 289° (WNW) 19:36:09 437.445
AO-85 26 Sep 19:30:38 19:32:26 13° 109° (ESE) 19:34:15 145.980
nSIGHT-1 26 Sep 19:31:57 19:34:32 22° 131° (SE) 19:37:07 .
XW-2C 26 Sep 19:39:39 19:43:09 33° 263° (W) 19:46:41 145.795 - 145.815
STARS 26 Sep 19:42:17 19:46:40 68° 285° (WNW) 19:51:03 437.465
CUTE 1.7 + AOD 2 26 Sep 19:53:33 19:57:44 55° 75° (ENE) 20:01:56 437.475
LilacSat-2 26 Sep 19:56:51 19:59:43 20° 265° (W) 20:02:37 437.200
KAITUO 1B 26 Sep 20:01:40 20:04:47 24° 264° (W) 20:07:56 145.475/437.950
ZACube-1 26 Sep 20:04:25 20:06:10 12° 64° (ENE) 20:07:57 437.345
JUGNU 26 Sep 20:12:42 20:15:33 14° 180° (S) 20:18:24 437.505
Tancredo 1 26 Sep 20:14:08 20:15:48 15° 333° (NNW) 20:17:28 437.200
BEESAT 3 26 Sep 20:16:48 20:20:39 46° 304° (NW) 20:24:33 437.485
XW-2A 26 Sep 20:21:11 20:24:26 43° 74° (ENE) 20:27:43 145.665 - 145.685
BEESAT 2 26 Sep 20:32:04 20:36:02 75° 120° (ESE) 20:40:05 435.950
ISS 26 Sep 20:34:43 20:37:58 77° 320° (NW) 20:41:14 437.550
NO-84 26 Sep 20:44:28 20:47:25 59° 228° (SW) 20:50:13 435.350 FM
CUTE-I 26 Sep 20:47:40 20:50:08 13° 269° (W) 20:52:36 437.470
SEEDS 26 Sep 20:54:32 20:58:36 45° 262° (W) 21:02:40 437.485
HO-68 26 Sep 20:54:39 21:01:22 43° 261° (W) 21:08:08 435.675
UWE-3 26 Sep 20:57:51 21:02:09 88° 257° (WSW) 21:06:37 435.000/436.395/437.385
CUBEBUG 2 26 Sep 20:58:36 21:02:41 47° 261° (W) 21:06:57 437.445
AAUSAT CUBESAT 2 26 Sep 21:06:27 21:10:36 78° 257° (WSW) 21:14:46 437.432
nSIGHT-1 26 Sep 21:07:48 21:10:44 32° 327° (NNW) 21:13:41 .
AO-85 26 Sep 21:08:41 21:12:23 42° 305° (NW) 21:16:09 145.980
STRAND 1 26 Sep 21:22:39 21:27:49 84° 284° (WNW) 21:32:59 437.568
Oscar 11 26 Sep 21:27:30 21:31:49 65° 75° (ENE) 21:36:08 .
AO-73 26 Sep 21:32:28 21:36:48 77° 258° (WSW) 21:41:17 145.935
CUTE 1.7 + AOD 2 26 Sep 21:32:43 21:33:52 11° 269° (W) 21:35:01 437.475
ZACube-1 26 Sep 21:37:35 21:41:51 58° 260° (W) 21:46:17 437.345
SRMSAT 26 Sep 21:44:55 21:47:02 12° 173° (S) 21:49:09 437.500
JUGNU 26 Sep 22:02:38 22:03:41 10° 191° (S) 22:04:45 437.505
DELFI C3 26 Sep 22:03:05 22:06:36 32° 72° (ENE) 22:10:08 145.870
FO-29 26 Sep 22:03:16 22:08:17 30° 98° (E) 22:13:47 435.910
BEESAT 2 26 Sep 22:12:52 22:14:16 11° 316° (NW) 22:15:40 435.950
ISS 26 Sep 22:13:08 22:14:54 14° 338° (NNW) 22:16:41 437.550
Max Valier Satellite 26 Sep 22:22:12 22:25:39 39° 74° (ENE) 22:29:10 145.860
SO-50 26 Sep 22:35:39 22:39:43 30° 52° (NE) 22:43:48 436.795
YUBILEINY 26 Sep 22:56:24 23:03:01 23° 68° (ENE) 23:09:36 435.215
EO-88 26 Sep 23:14:40 23:18:15 52° 260° (W) 23:21:52 145.990 - 145.960
PRISM 26 Sep 23:21:22 23:24:39 23° 96° (E) 23:27:54 437.425
PCSat 26 Sep 23:22:14 23:26:40 25° 52° (NE) 23:31:05 145.827
UNISAT 6 26 Sep 23:28:43 23:33:25 66° 101° (ESE) 23:38:04 437.425
SRMSAT 26 Sep 23:32:40 23:35:19 13° 183° (S) 23:37:59 437.500
DELFI C3 26 Sep 23:38:58 23:41:24 16° 266° (W) 23:43:51 145.870
FO-29 26 Sep 23:48:13 23:53:19 36° 290° (WNW) 23:58:59 435.910
TIGRISAT 26 Sep 23:51:22 23:56:05 78° 284° (WNW) 00:00:46 435.000
Max Valier Satellite 26 Sep 23:58:22 23:59:39 11° 268° (W) 00:00:57 145.860
LO-87 26 Sep 23:59:16 00:02:44 58° 75° (ENE) 00:06:13 145.935 - 145.965
ESTCUBE 1 27 Sep 00:08:11 00:12:34 51° 73° (ENE) 00:16:58 437.505/2401.250
SO-50 27 Sep 00:16:09 00:20:04 28° 248° (WSW) 00:24:02 436.795
VELOX 1 27 Sep 00:23:42 00:25:46 13° 65° (ENE) 00:27:51 145.980
DUCHIFAT 1 27 Sep 00:51:27 00:54:09 16° 93° (E) 00:56:50 145.980
